��¬ǯ����,2014./10/23,,,
��¬��,���ܡ��۲�,,,
��¬����,5,,,
���ٷ��ֹ�,A021,,,
,,,,
����,����,����,��®,����
15:00:05,19,6,2,
15:01:00,19,7,0,
15:02:01,19,6,1,
15:03:01,19,3,0,
15:04:04,19,7,1,
15:05:08,19,6,1,
15:06:19,19,7,2,
15:07:00,18.8,7,2,
15:08:20,18.8,7,7,
15:09:00,18.8,7,3,
15:10:00,18.8,4,2,
15:11:03,18.8,5,1,
15:12:01,18.8,7,2,
15:13:10,18.9,7,2,
15:14:00,18.9,4,1,
15:15:05,18.9,5,2,
15:16:08,18.9,7,1,
15:17:00,18.9,6,2,
15:18:00,18.9,4,2,
15:19:05,18.8,6,2,
15:20:10,18.7,5,2,
15:21:13,18.7,5,1,
15:22:01,18.7,5,1,
15:23:15,18.7,6,1,
15:24:05,18.6,6,0,
15:25:15,18.6,5,1,
15:26,18.5,6,0,
15:27:03,18.5,6,0,
15:28:06,18.3,4,3,
15:29:11,18.3,6,1,
15:30:09,18.3,7,1,
15:31:10,18.2,7,3,
15:32:09,18.2,4,2,
15:33:03,18.2,0,2,
15:34:02,18.5,7,1,
15:35:01,18.5,6,1,
15:36:04,18.4,5,2,
15:37:07,18.3,6,2,�֤������̤ä���
15:38:07,18.1,4,2,
15:39:15,18.1,4,1,
15:40:00,18,0,3,
15:41:00,18.1,6,3,
15:42:06,18.1,6,1,
15:43:17,18,0,3,�֤������̤ä���
15:44:15,18,4,0,
15:45:00,18.1,7,4,
15:46:00,18.3,7,4,
15:47:04,18.5,0,4,
15:48:08,18.6,6,2,�ͤ���Ť�����
15:49:00,18.5,5,1,�֤������̤ä���
15:50:04,18.3,6,1,�֤������̤ä���
15:51:13,18.4,0,1,
15:52,18.3,6,1,
15:53:16,18.3,0,3,
15:54:04,18.5,7,1,
15:55:00,18.4,7,1,
15:56:04,18.3,7,4,
15:57:00,18.5,6,1,
15:58:03,18.1,7,0,
15:59:02,18.1,4,1,
16:00:01,18,4,1,
16:01:00,18,4,2,
16:02:00,18,5,1,
16:03:00,17.9,5,1,
16:04:07,18,4,2,
16:05:02,18,6,2,
16:06:03,17.9,5,1,
16:07:02,17.8,6,1,
16:08:07,17.9,5,2,�֤������̤ä���
16:09:02,18,4,1,
16:10:01,18,4,1,
16:11:05,18,6,3,
16:12:14,17.9,4,1,�ڤη�֤���������������
16:13:00,18,4,1,
16:14:00,17.9,4,1,
16:15:00,17.9,5,1,
16:16:00,18,7,2,�֤������̤ä���
16:17:00,18,7,0,
16:18:04,18,6,1,
16:19:02,17.8,6,1,
16:20:00,17.8,7,2,
16:21:00,17.8,4,3,�֤������̤ä���
16:22:03,17.7,6,1,
16:23:07,17.7,6,1,
16:24:00,17.7,3,3,
16:25,17.7,7,1,
16:26:00,17.6,4,2,
16:27:03,17.6,5,1,
16:28:00,17.7,5,1,
16:29:02,17.7,4,2,
16:30:00,17.6,7,3,
16:31:01,17.6,3,1,
16:32:02,17.6,5,1,
16:33:00,17.8,0,1,
16:34:00,17.7,6,3,
16:35:00,17.6,6,1,
16:36:00,17.4,4,2,
16:37:03,17.3,5,0,
16:38:05,17.3,7,2,
16:39:00,17.3,6,1,
16:40:00,17.2,6,1,
16:41:03,17.2,7,1,
16:42:00,17.1,5,1,
16:43:00,17,6,2,�֤������̤ä���
16:44:05,17.4,5,2,
16:45:00,17.3,7,4,�֤������̤ä���
16:46:00,17.4,4,1,�֤������̤ä���
16:47:03,17.3,7,5,�֤������̤ä���
16:48:02,17.3,5,3,
16:49:05,17.2,6,0,
16:50:00,17.2,5,3,�֤������̤ä���
16:51:00,17.1,5,1,
16:52:00,17.1,5,8,
16:53:00,17.1,7,1,
16:54:00,17.2,7,0,
16:55:00,17.1,5,7,
16:56:00,17.2,7,0,
16:57:02,17.1,6,1,
16:58:00,17,5,2,
16:59:02,17,5,0,
17:00:00,17,4,1,
